Location: Keewatin
(47.4004°N, 93.0827°W)
Time: 17:59:25
(UTC+00:00)

KKS-1 - Pass Details

Date: 26 February 2020
Orbit: 637 x 650 km, 98.3° (Epoch: 04 April)

Event Time Altitude Azimuth Distance (km) Brightness Sun altitude
Rises 02:30:05 0° 11° (N) 2,952 ? -27.4°
Reaches altitude 10° 02:32:19 10° 8° (N) 2,038 ? -27.8°
Enters shadow 02:33:15 16° 6° (N) 1,661 ? -27.9°
